STARLINK-4637, 53742

Orbit data source: Space-Track

STARLINK-4637, 53742 is a payload satellite owned by SpaceX/Seattle (US) in LEO that was launched on Mon, 05 Sep 2022 UTC via an FALCON 9 launch vehicle from the Air Force Eastern Test Range (AFETR). Payload-class satellites include a variety of spacecraft equipped with specific instruments for various scientific and technological missions. These include communications satellites like Starlink; space stations such as the ISS; scientific satellites like the Hubble; Earth observation satellites from companies like Planet Labs, Umbra, and HawkEye 360; GPS; miniature CubeSats for education and research; and military/defense satellites.

Loading next visibility...
Identifier
53742, 2022-107AU
Orbit
LEO
Country
Flag of USUS
Related business
Manufacturer
SpaceX/Seattle
Mission
Operational Commercial Communications
Bus & Motor
STARLINK, Unknown motor
Mass
305 kg wet, ~290 kg dry
Launch date (UTC)
2022-09-05 (4 years ago)
Launch vehicle
FALCON 9
Launch site
Air Force Eastern Test Range (AFETR)
Object type
Payload
Rocket body
Debris
Shape & HBR
Box + 1 Pan, 10.1 m
Radar Cross Section
13.562 m², Large (>1 m²)

Expand to show TLE details & history
Last TLE update: 2 days ago

TLE from 2 days ago
0 STARLINK-4637
1 53742U 22107AU  26171.41668980  .00075993  00000-0  41389-2 0  9992
2 53742  53.1591 162.7339 0000197   1.7686 346.3438 15.13753027  5823
Epoch: 2026-06-20T10:00Z
TLE epoch observation values (Epoch: 2026-06-20T10:00:01.998Z)
Latitude
-9.62389°
Longitude
96.83565°
Altitude
527.276 km
Speed
7.6 km/s
True Right ascension
10h 21m 54s
True Declination
-9° 33' 56"
Sunlit
Object was in daylight at epoch
Visualization orbit readout
Latitude
Unknown
Longitude
Unknown
Altitude
Unknown
Speed
Unknown
Apparent Right ascension
Unknown
Apparent Declination
Unknown
Sunlit
N/A
Visualization observer readout
Local Sidereal Time
00:33:50
Azimuth
Unknown
Elevation
Unknown
Doppler factor
Unknown
Orbital elements
Apogee altitude
525.158 km
Perigee altitude
524.886 km
Semi-major axis
6,903.159 km
Eccentricity
0.00002
Inclination
53.1591°
RAAN
162.7339°
Arg. of periapsis
1.7686°
True anomaly
346.34327°
Mean anomaly
346.3438°
Eccentric anomaly
346.34353°
Mean motion
3.78418 °/min
Orbital period
95.13 mins
BSTAR
0.0041389
Loading maneuver chart data...
Computing Atmospheric mass density...

Documentation

Showing up to 5 results
|